Location: Dortmund
(51.5019°N, 7.6520°E)
Time: 17:03:56
(UTC+01:00)

ISS - Pass Details

Date: 28 March 2017
Orbit: 399 x 409 km, 51.6° (Epoch: 25 March)

Event Time Altitude Azimuth Distance (km) Brightness Sun altitude
Rises 20:56:45 0° 202° (SSW) 2,302 0.1 -10.0°
Reaches altitude 10° 20:59:25 10° 179° (S) 1,450 -1.2 -10.4°
Maximum altitude 21:01:24 15° 141° (SE) 1,177 -2.0 -10.7°
Enters shadow 21:01:46 15° 133° (SE) 1,188 -2.0 -10.7°
